Powrót do katalogu

STARLINK-31313

AktywnyŁącznośćVLEO
NORAD 59088·PAYLOAD·🇺🇸 United States

Wystrzelony Feb 29, 2024 z Cape Canaveral Space Force Station

Loading…

Następne Przeloty (najbliższe 24 godziny)

TLE

ŚwieżeSource: CelesTrak SupGP

Epoka: Sep 14, 2026, 21:40 UTC

1 59088C 24041Q   26257.90326389 -.00027609  00000+0 -10001-2 0  2579
2 59088  43.0014 322.0025 0001629 267.8442 347.5409 15.27590120    14

Śledź STARLINK-31313 w czasie rzeczywistym z AllMySat

Download on the App Store